CZ-6A DEB

Satellite information

Favourite Embed

Satellite Type and Status

DEBRISIN ORBIT

Key statistics

Satellite CZ-6A DEB at a glance.

Uptime

1078

Days in orbit

Revolutions

≈ 14.2

Per day

Orbit

SSO

Sun Synchronous Orbit

Inclination

98.8

Latest

Satellite identification and parameters

Extended collection of information and parameters for CZ-6A DEB.

Object identification

Identified? True

Debris? True

Object name: CZ-6A DEB

International designator: 2022-151GS

Object number (NORAD): 54466

Object ID (CCSDS): 54466

Country: PEOPLES REPUBLIC OF CHINA (PRC)

Current information (Y/N): Y

RCS size: MEDIUM

Orbital parameters

Period: 101.654 minutes

Inclination: 98.8304 deg

SMA: 7215.1 km

Apoapsis: 857.391 km

Periapsis: 816.54 km

RAAN: 305.5434 deg

Eccentricy: 0.00283093

Argument of periapsis: 257.3415 deg

Mean anomaly: 102.4594 deg

Mean motion: 14.16573767 rev/day

Mean motion (dot): 0.00001937 rev/day2

B* drag term: 0.00099021969 1/REarth

Two-line elements (TLE)

Creation date: Oct. 24, 2025, 2:48 a.m.

Reference frame: TEME

Reference center: EARTH

Epoch: Oct. 23, 2025, 11:03 p.m. UTC

TLE line 0: 0 CZ-6A DEB

TLE line 1: 1 54466U 22151GS 25296.96102719 .00001937 00000-0 99022-3 0 9990

TLE line 2: 2 54466 98.8304 305.5434 0028309 257.3415 102.4594 14.16573767151933

Live tracking on map

Real-time ground track for satellite CZ-6A DEB.

In-orbit conjunctions

A list of the most updated potential collisions computed for object CZ-6A DEB.

Target Orbit TCA Probability of collision Miss distance Type
METEOR 2-8 DEB LEO 2025-10-06 20:27:37 0.0001161079 118.0 (m) DEBRIS
CZ-6A R/B DEB LEO 2025-05-17 20:11:19 0.0002331795 155.0 (m) DEBRIS
CZ-6A DEB SSO 2024-06-28 06:53:10 0.0001009905 359.0 (m) DEBRIS

Associated space launch

Chinese satellite reported for atmospheric/ocean/environmental/spatial parameter research purposes, details TBD.

CZ-6A DEB was lifted into orbit during the mission ‘Long March 6A | Yunhai 3’, on board a Long March 6A space rocket.

The launch took place on Nov. 11, 2022, 10:52 p.m. from Launch Complex 9A.

For more information about the launch, click the button.

Launch to space Long March 6A | Yunhai 3
Long March 6A | Yunhai 3

Agency: N/A

Status: Launch Successful

Launch date: Nov. 11, 2022, 10:52 p.m. UTC

Rocket: Long March 6A

Launch pad: Launch Complex 9A

Location: Taiyuan Satellite Launch Center, People's Republic of China

...

Latest news about this satellite

There are no fresh news available about this satellite. Check back as we update our databases every day.


Newsletter sign-up

Weekly statistics, charts and insights to help you stay on top of the space industry.